一网星座-0671星 (ONEWEB-0671)

导读 | 星芒AI

ONEWEB-0671 是 OneWeb 卫星星座计划中的一颗低轨通信卫星,旨在为全球提供高速互联网服务。该卫星由阿丽亚娜集团制造,搭载先进通信载荷,支持宽带数据传输。它于2023年发射,运行在约1200公里高的近极地轨道,与其他 OneWeb 卫星协同工作,覆盖偏远和未连接地区。该项目由多个国际合作伙伴支持,致力于缩小数字鸿沟,提升全球通信基础设施水平。

基本信息
目录编号:
55830
目录名称:
ONEWEB-0671
国际标识:
2023-029AL
轨道中心:
EARTH
卫星名称:
一网星座-0671星
卫星全名:
一网星座-0671星 (ONEWEB-0671)
卫星状态:
在轨 (已飞行1013 天)
发射日期:
2023-03-09 UTC
国别 :
英国 (GB)
星等 :
--
轨道信息
数据来源 国际轨道数据
星历时间: 2025-12-15T14:48:23+0800
19小时前
查看轨道信息
半长轴: 7563.902km
偏心率: 0.0001975
轨道倾角: 87.919°
近地点辐角 85.913°
升交点赤经 341.572°
平近点角 274.223°
近地点: 1184.273km
远地点: 1187.261km
周期: 109.114分钟
每日圈数: 13.197265
详细信息
平衡模式:
三轴稳定
覆盖范围:
全球
运营商:
一网卫星公司
运营商所在国:
英国
制造商(研发单位):
一网卫星公司
制造商所在国:
英国
使用方式:
暂无
卫星简介
OneWeb卫星网络由648颗重约125公斤的微型卫星组成,运行在1200公里的轨道上。 每颗卫星都能够提供至少每秒8千兆位的吞吐量,以使用其高吞吐量的Ku频段有效载荷为家庭和移动平台提供互联网接入。该卫星仍在工作。
2D轨道图
3D轨道图
轨道高度分析图
轨道倾角分析图
轨道综合分析图
查看轨道综合分析图